Location: Fauquembergues
(50.6005°N, 2.0987°E)
Time: 10:45:33
(UTC+00:00)

Cosmos 2221 Rocket - Pass Details

Date: 14 July 2020
Orbit: 619 x 649 km, 82.5° (Epoch: 05 August)

Event Time Altitude Azimuth Distance (km) Brightness Sun altitude
Rises 02:08:55 0° 347° (NNW) 2,915 7.8 -12.2°
Reaches altitude 10° 02:11:10 10° 344° (NNW) 2,002 6.8 -12.0°
Maximum altitude 02:15:32 61° 264° (W) 707 3.7 -11.6°
Enters shadow 02:19:25 13° 186° (S) 1,810 5.4 -11.3°
